Miscellaneous Local Product
Issued by NWS Hastings, NE

Home | Current Version | Previous Version | Graphics & Text | Print | Product List | Glossary On
Versions: 1 2 3 4 5 6 7 8 9 10 11 12 13 14 15 16 17 18 19 20 21 22 23 24 25 26 27 28 29 30 31 32 33 34 35 36 37 38 39 40 41 42 43 44 45 46 47 48 49 50
000
AXUS43 KGID 190602
MISGRI

GID CWA HOURLY WEATHER ROUNDUP
NATIONAL WEATHER SERVICE HASTINGS NE
1200 AM CST SUN FEB 19 2017

NOTE: "FAIR" INDICATES FEW OR NO CLOUDS BELOW 12,000 FEET WITH NO
SIGNIFICANT WEATHER AND/OR OBSTRUCTIONS TO VISIBILITY.

...SOUTH CENTRAL NEBRASKA...

CITY           SKY/WX    TMP DP  RH WIND       PRES   REMARKS
GRAND ISLAND   CLEAR     46  35  65 SE8       29.79R
HASTINGS       CLOUDY    50  38  63 S7        29.80R
KEARNEY        PTCLDY    41  30  65 CALM      29.78S
ORD            PTCLDY    42  29  59 CALM      29.77S
YORK           PTCLDY    46  32  57 SE8       29.80S
AURORA         CLOUDY    43  32  65 SE8       29.79S
LEXINGTON      PTCLDY    39  34  80 E5        29.75F
HOLDREGE       PTCLDY    47  37  69 S9        29.76F
HEBRON         MOCLDY    49  40  70 S6        29.80S

...NEBRASKA PANHANDLE...

CITY           SKY/WX    TMP DP  RH WIND       PRES   REMARKS
CHADRON        MOCLDY    50  30  46 S15       29.64R
ALLIANCE       CLOUDY    42  31  64 SE9       29.68S
SCOTTSBLUFF    PTCLDY    46  27  47 E8        29.66F
SIDNEY         CLOUDY    43  27  53 SE9       29.68F

...WESTERN AND NORTH CENTRAL NEBRASKA...

CITY           SKY/WX    TMP DP  RH WIND       PRES   REMARKS
VALENTINE      PTCLDY    46  31  55 S12       29.71F
AINSWORTH      PTCLDY    41  32  71 S9        29.73F
ONEILL         PTCLDY    45  34  66 SE9       29.76F
BROKEN BOW     CLOUDY    34  30  85 CALM      29.75F
IMPERIAL       PTCLDY    45  33  63 SE7       29.72S
NORTH PLATTE   PTCLDY    38  31  76 E9        29.73F WCI  31
MCCOOK         PTCLDY    47  35  63 CALM      29.73F

...EASTERN NEBRASKA...

CITY           SKY/WX    TMP DP  RH WIND       PRES   REMARKS
NORFOLK        PTCLDY    41  33  73 SE6       29.80R
SO SIOUX CITY  CLOUDY    38  32  79 SE7       29.82S WCI  33
TEKAMAH        MOCLDY    37  33  85 CALM      29.83R
COLUMBUS       MOCLDY    39  32  75 E3        29.81S
ALBION         CLOUDY    43  33  68 SE5       29.79F
OMAHA EPPLEY   CLOUDY    40  32  73 CALM      29.83R
OFFUTT AFB     PTCLDY    36  35  96 CALM      29.82S
MILLARD        PTCLDY    42  36  77 CALM      29.83R
LINCOLN        PTCLDY    42  31  64 CALM      29.83R
NEBRASKA CITY  CLEAR     49  27  43 SE7       29.83S
BEATRICE       PTCLDY    47  36  64 SE3       29.82S
FALLS CITY     CLEAR     46  35  65 SE6       29.84R

...NORTHERN KANSAS...

CITY           SKY/WX    TMP DP  RH WIND       PRES   REMARKS
GOODLAND       CLOUDY    45  30  55 S14       29.73R
HILL CITY      MOCLDY    51  42  71 S9        29.78R
NORTON         CLEAR     48  32  53 S5        29.75S
PHILLIPSBURG   CLEAR     50  41  71 SE3       29.78S
SMITH CENTER   CLEAR     46  39  76 SE7       29.80R
HAYS           PTCLDY    47  43  86 S6        29.81R
RUSSELL        PTCLDY    49  45  86 SW8       29.79R
CONCORDIA      PTCLDY    54  46  74 S17       29.80R
SALINA         CLEAR     53  46  77 SE12      29.82F
TOPEKA         CLOUDY    55  48  77 SW7       29.86R



USA.gov is the U.S. government's official web portal to all federal, state and local government web resources and services.